Sigfox identifier Datetime Temperature Humidity SNR
003A4D6E 2019-04-23 15:10:00 16.2 31 25.1
003A4D6E 2019-04-23 14:35:49 16.2 31 25
003A4D6E 2019-04-23 14:01:40 16 31 24.8
003A4D6E 2019-04-23 13:27:30 16 31 24.8
003A4D6E 2019-04-23 12:53:18 15.9 31 24.7
003A4D6E 2019-04-23 12:19:06 15.8 31 24.7
003A4D6E 2019-04-23 11:44:56 15.8 31 24.9
003A4D6E 2019-04-23 11:10:46 15.8 31 24.7
003A4D6E 2019-04-23 10:36:35 15.8 31 24.8
003A4D6E 2019-04-23 10:02:25 15.8 31 24.7
003A4D6E 2019-04-23 09:28:14 15.7 31 24.6
003A4D6E 2019-04-23 08:54:04 15.7 31 24.3
003A4D6E 2019-04-23 08:19:54 15.7 31 24.1
003A4D6E 2019-04-23 07:45:44 15.8 30 24.1
003A4D6E 2019-04-23 07:11:34 15.7 30 24.2
003A4D6E 2019-04-23 06:37:23 15.7 30 24.2
003A4D6E 2019-04-23 06:03:12 15.6 30 24.2
003A4D6E 2019-04-23 05:29:01 15.7 30 24.1
003A4D6E 2019-04-23 04:54:51 15.7 30 24.1
003A4D6E 2019-04-23 04:20:40 15.7 30 23.9
003A4D6E 2019-04-23 03:46:30 15.7 30 23.8
003A4D6E 2019-04-23 03:12:20 15.7 30 23.8
003A4D6E 2019-04-23 02:38:10 15.8 30 23.7
003A4D6E 2019-04-23 02:04:00 15.8 30 23.6
003A4D6E 2019-04-23 01:29:50 15.8 30 23.6
003A4D6E 2019-04-23 00:55:40 15.8 30 23.7
003A4D6E 2019-04-23 00:21:29 15.8 30 23.6
003A4D6E 2019-04-22 23:47:19 15.8 30 23.7
003A4D6E 2019-04-22 23:13:08 15.9 30 23.7
003A4D6E 2019-04-22 22:38:57 15.9 30 23.7
003A4D6E 2019-04-22 22:04:46 15.9 30 23.6
003A4D6E 2019-04-22 21:30:34 16 30 23.5
003A4D6E 2019-04-22 20:56:23 16 30 23.3
003A4D6E 2019-04-22 20:22:11 16 30 23.3
003A4D6E 2019-04-22 19:48:00 16 30 23.3
003A4D6E 2019-04-22 19:13:49 16 30 23.2
003A4D6E 2019-04-22 18:39:38 16 30 23.3
003A4D6E 2019-04-22 18:05:27 16 30 23.3
003A4D6E 2019-04-22 17:31:15 16 30 23.3
003A4D6E 2019-04-22 16:57:03 16 30 23.4
003A4D6E 2019-04-22 16:22:50 16 30 23.3
003A4D6E 2019-04-22 15:48:39 16 30 23.2
003A4D6E 2019-04-22 15:14:28 15.8 30 23.2
003A4D6E 2019-04-22 14:40:17 15.8 30 23.1
003A4D6E 2019-04-22 14:06:06 15.8 30 23.2
003A4D6E 2019-04-22 13:31:54 15.8 30 23.3
003A4D6E 2019-04-22 12:57:43 15.8 30 23.3
003A4D6E 2019-04-22 12:23:32 15.8 30 23.4
003A4D6E 2019-04-22 11:49:20 15.7 30 23.5
003A4D6E 2019-04-22 11:15:09 15.8 30 23.4
003A4D6E 2019-04-22 10:40:58 15.8 30 23.4
003A4D6E 2019-04-22 10:06:48 15.7 30 23.4
003A4D6E 2019-04-22 09:32:36 15.8 30 23.4
003A4D6E 2019-04-22 08:58:26 15.8 30 23.4
003A4D6E 2019-04-22 08:24:14 15.7 30 23.4
003A4D6E 2019-04-22 07:50:04 15.8 30 23.4
003A4D6E 2019-04-22 07:15:53 15.8 30 23.3
003A4D6E 2019-04-22 06:41:42 15.7 30 23.4
003A4D6E 2019-04-22 06:07:30 15.7 30 23.4
003A4D6E 2019-04-22 05:33:19 15.7 30 23.4
003A4D6E 2019-04-22 04:59:08 15.6 29 23.3
003A4D6E 2019-04-22 04:24:56 15.6 30 23.2
003A4D6E 2019-04-22 03:50:43 15.6 29 23.3
003A4D6E 2019-04-22 03:16:32 15.6 29 23.3
003A4D6E 2019-04-22 02:42:22 15.6 29 23.3
003A4D6E 2019-04-22 02:08:11 15.6 29 23.4
003A4D6E 2019-04-22 01:34:00 15.6 29 23.5
003A4D6E 2019-04-22 00:59:49 15.6 29 23.5
003A4D6E 2019-04-22 00:25:37 15.6 29 23.7
003A4D6E 2019-04-21 23:51:26 15.6 29 23.8
003A4D6E 2019-04-21 23:17:17 15.6 29 23.7
003A4D6E 2019-04-21 22:43:04 15.6 29 23.7
003A4D6E 2019-04-21 22:08:52 15.6 29 23.7
003A4D6E 2019-04-21 21:34:41 15.6 29 23.6
003A4D6E 2019-04-21 21:00:31 15.6 29 23.6
003A4D6E 2019-04-21 20:26:20 15.6 29 23.6
003A4D6E 2019-04-21 19:52:10 15.6 29 24.1
003A4D6E 2019-04-21 19:17:58 15.6 29 24.2
003A4D6E 2019-04-21 18:43:47 15.6 29 24.3
003A4D6E 2019-04-21 18:09:36 15.5 29 24.4
003A4D6E 2019-04-21 17:35:25 15.6 29 24.4
003A4D6E 2019-04-21 17:01:15 15.6 29 24.5
003A4D6E 2019-04-21 16:27:04 15.5 29 24.6
003A4D6E 2019-04-21 15:52:51 15.5 29 24.7
003A4D6E 2019-04-21 15:18:39 15.6 29 24.7
003A4D6E 2019-04-21 14:44:28 15.6 29 24.8
003A4D6E 2019-04-21 14:10:17 15.6 29 24.9
003A4D6E 2019-04-21 13:36:05 15.6 29 24.9
003A4D6E 2019-04-21 13:01:55 15.6 29 24.9
003A4D6E 2019-04-21 12:27:44 15.6 29 24.9
003A4D6E 2019-04-21 11:53:33 15.6 29 25
003A4D6E 2019-04-21 11:19:22 15.6 29 25
003A4D6E 2019-04-21 10:45:10 15.6 29 25
003A4D6E 2019-04-21 10:11:00 15.6 29 24.9
003A4D6E 2019-04-21 09:36:50 15.6 29 24.9
003A4D6E 2019-04-21 09:02:41 15.8 29 25
003A4D6E 2019-04-21 08:28:30 15.7 29 25.1
003A4D6E 2019-04-21 07:54:20 15.7 29 25.1
003A4D6E 2019-04-21 07:20:12 15.7 29 25.1
003A4D6E 2019-04-21 06:46:03 15.7 29 25.1
003A4D6E 2019-04-21 06:11:54 15.8 29 25.1
003A4D6E 2019-04-21 05:37:44 15.7 28 24.7
003A4D6E 2019-04-21 05:03:35 15.7 28 24.6
003A4D6E 2019-04-21 04:29:26 15.7 28 24.5
003A4D6E 2019-04-21 03:55:16 15.7 28 24.5
003A4D6E 2019-04-21 03:21:05 15.7 28 24.4
003A4D6E 2019-04-21 02:46:55 15.6 28 24.4
003A4D6E 2019-04-21 02:12:44 15.6 28 24.2
003A4D6E 2019-04-21 01:38:33 15.6 28 24.1
003A4D6E 2019-04-21 01:04:22 15.6 28 24.1
003A4D6E 2019-04-21 00:30:11 15.6 28 24.2
003A4D6E 2019-04-20 23:56:00 15.6 28 24.1
003A4D6E 2019-04-20 23:21:48 15.6 28 23.9
003A4D6E 2019-04-20 22:47:38 15.6 28 23.9
003A4D6E 2019-04-20 22:13:27 15.6 28 23.9
003A4D6E 2019-04-20 21:39:16 15.6 28 23.8
003A4D6E 2019-04-20 21:05:07 15.6 28 23.8
003A4D6E 2019-04-20 20:30:57 15.6 28 23.9
003A4D6E 2019-04-20 19:56:45 15.6 28 23.9
003A4D6E 2019-04-20 19:22:33 15.6 28 23.9
003A4D6E 2019-04-20 18:48:21 15.7 28 23.8
003A4D6E 2019-04-20 18:14:10 15.6 28 23.8
003A4D6E 2019-04-20 17:39:57 15.6 28 23.9
003A4D6E 2019-04-20 17:05:45 15.6 28 23.9
003A4D6E 2019-04-20 16:31:35 15.6 28 24
003A4D6E 2019-04-20 15:57:24 15.6 28 24.1
003A4D6E 2019-04-20 15:23:13 15.6 28 24
003A4D6E 2019-04-20 14:49:03 15.6 28 24.1
003A4D6E 2019-04-20 14:14:53 15.6 28 24.1
003A4D6E 2019-04-20 13:40:42 15.6 28 24.2
003A4D6E 2019-04-20 13:06:32 15.6 28 24.2
003A4D6E 2019-04-20 12:32:22 15.7 28 24.3
003A4D6E 2019-04-20 11:58:11 15.7 28 24.3
003A4D6E 2019-04-20 11:23:59 15.8 28 24.1
003A4D6E 2019-04-20 10:49:48 15.7 27 24.2
003A4D6E 2019-04-20 10:15:37 15.8 27 24.2
003A4D6E 2019-04-20 09:41:29 15.8 27 24.4
003A4D6E 2019-04-20 09:07:14 15.8 27 24.3
003A4D6E 2019-04-20 08:33:03 15.8 27 24.3
003A4D6E 2019-04-20 07:58:51 15.8 27 24.3
003A4D6E 2019-04-20 07:24:40 15.8 27 24.4
003A4D6E 2019-04-20 06:50:28 15.8 27 24.3
003A4D6E 2019-04-20 06:16:16 15.8 27 24.2
003A4D6E 2019-04-20 05:42:04 15.8 27 24.2
003A4D6E 2019-04-20 05:07:53 15.8 27 24.2
003A4D6E 2019-04-20 04:33:42 15.8 27 24.2
003A4D6E 2019-04-20 03:59:30 16 27 24.1
003A4D6E 2019-04-20 03:25:18 16 27 24.2
003A4D6E 2019-04-20 02:51:07 16 27 24
003A4D6E 2019-04-20 02:16:56 16 27 24
003A4D6E 2019-04-20 01:42:45 16 27 23.9
003A4D6E 2019-04-20 01:08:34 16 27 23.8
003A4D6E 2019-04-20 00:34:23 16 27 23.8
003A4D6E 2019-04-20 00:00:12 16.1 27 23.8
003A4D6E 2019-04-19 23:26:02 16.2 27 23.6
003A4D6E 2019-04-19 22:51:56 16.2 27 23.5
003A4D6E 2019-04-19 22:17:43 16.2 27 23.8
003A4D6E 2019-04-19 21:43:30 16.2 27 23.8
003A4D6E 2019-04-19 21:09:21 16.2 27 23.8
003A4D6E 2019-04-19 20:35:11 16.2 27 23.7
003A4D6E 2019-04-19 20:01:00 16.2 27 23.9
003A4D6E 2019-04-19 19:26:50 16.2 27 24
003A4D6E 2019-04-19 18:52:39 16.2 27 24.1
003A4D6E 2019-04-19 18:18:29 16.2 27 24.2
003A4D6E 2019-04-19 17:44:19 16.2 27 24.3
003A4D6E 2019-04-19 17:10:09 16.2 27 24.4
003A4D6E 2019-04-19 16:36:00 16.3 27 24.5
003A4D6E 2019-04-19 16:01:50 16.2 27 24.5
003A4D6E 2019-04-19 15:27:39 16.1 27 24.5
003A4D6E 2019-04-19 14:53:28 16 27 24.6
003A4D6E 2019-04-19 14:19:18 16 27 24.7
003A4D6E 2019-04-19 13:45:08 16 27 24.7
003A4D6E 2019-04-19 13:10:58 16 27 24.8
003A4D6E 2019-04-19 12:36:47 16 26 24.8
003A4D6E 2019-04-19 12:02:37 16 26 25
003A4D6E 2019-04-19 11:28:26 16 26 25
003A4D6E 2019-04-19 10:54:16 16 26 25.1
003A4D6E 2019-04-19 10:20:04 16 26 25.1
003A4D6E 2019-04-19 09:45:54 16 26 25.3
003A4D6E 2019-04-19 09:11:44 16 26 25.3
003A4D6E 2019-04-19 08:37:34 16 26 25.3
003A4D6E 2019-04-19 08:03:24 16 26 25.4
003A4D6E 2019-04-19 07:29:14 16 26 25.5
003A4D6E 2019-04-19 06:55:05 16 26 25.5
003A4D6E 2019-04-19 06:20:55 16.1 26 25.7
003A4D6E 2019-04-19 05:46:45 16.2 26 25.7
003A4D6E 2019-04-19 05:12:34 16.2 26 25.7
003A4D6E 2019-04-19 04:38:24 16.2 26 25.7
003A4D6E 2019-04-19 04:04:15 16.2 26 25.7
003A4D6E 2019-04-19 03:30:04 16.2 26 25.6
003A4D6E 2019-04-19 02:55:54 16.2 26 25.5
003A4D6E 2019-04-19 02:21:44 16.4 26 25.5
003A4D6E 2019-04-19 01:47:34 16.4 26 25.5
003A4D6E 2019-04-19 01:13:25 16.4 26 25.6
003A4D6E 2019-04-19 00:39:15 16.4 26 25.6
003A4D6E 2019-04-19 00:05:05 16.5 26 25.7
003A4D6E 2019-04-18 23:30:55 16.6 26 25.8
003A4D6E 2019-04-18 22:56:45 16.6 26 25.7
003A4D6E 2019-04-18 22:22:35 16.6 26 25.6
003A4D6E 2019-04-18 21:48:25 16.6 26 25.7
003A4D6E 2019-04-18 21:14:16 16.6 26 25.7
003A4D6E 2019-04-18 20:40:06 16.6 26 25.7
003A4D6E 2019-04-18 20:05:56 16.6 26 25.8
003A4D6E 2019-04-18 19:31:46 16.6 26 25.8
003A4D6E 2019-04-18 18:57:35 16.6 26 25.9
003A4D6E 2019-04-18 18:23:26 16.6 26 25.9
003A4D6E 2019-04-18 17:49:17 16.6 25 25.8
003A4D6E 2019-04-18 17:15:07 16.6 25 25.7
003A4D6E 2019-04-18 16:40:57 16.5 25 25.8
003A4D6E 2019-04-18 16:06:49 16.5 25 25.6
003A4D6E 2019-04-18 15:32:40 16.4 25 25.6
003A4D6E 2019-04-18 14:58:30 16.4 25 25.7
003A4D6E 2019-04-18 14:24:22 16.4 25 25.6
003A4D6E 2019-04-18 13:50:12 16.4 25 25.6
003A4D6E 2019-04-18 13:16:02 16.4 25 25.6
003A4D6E 2019-04-18 12:41:52 16.4 25 25.7
003A4D6E 2019-04-18 12:07:41 16.4 25 25.9
003A4D6E 2019-04-18 11:33:31 16.4 25 25.9
003A4D6E 2019-04-18 10:59:21 16.4 25 25.9
003A4D6E 2019-04-18 10:25:11 16.3 25 25.8
003A4D6E 2019-04-18 09:51:01 16.3 25 25.7
003A4D6E 2019-04-18 09:16:52 16.4 25 25.6
003A4D6E 2019-04-18 08:42:42 16.4 25 25.6
003A4D6E 2019-04-18 08:08:32 16.4 25 25.7
003A4D6E 2019-04-18 07:34:23 16.4 25 25.6
003A4D6E 2019-04-18 07:00:13 16.4 25 25.7
003A4D6E 2019-04-18 06:26:04 16.4 25 25.5
003A4D6E 2019-04-18 05:51:55 16.4 25 25.4
003A4D6E 2019-04-18 05:17:46 16.4 25 25.4
003A4D6E 2019-04-18 04:43:37 16.4 25 25.4
003A4D6E 2019-04-18 04:09:29 16.4 25 25.3
003A4D6E 2019-04-18 03:35:17 16.4 24 25.2
003A4D6E 2019-04-18 03:01:07 16.6 24 25.1
003A4D6E 2019-04-18 02:26:57 16.6 24 24.8
003A4D6E 2019-04-18 01:52:49 16.6 24 24.7
003A4D6E 2019-04-18 01:18:39 16.8 24 24.5
003A4D6E 2019-04-18 00:44:29 16.8 24 24.2
003A4D6E 2019-04-18 00:10:19 16.8 24 24.1
003A4D6E 2019-04-17 23:36:10 16.8 24 23.9
003A4D6E 2019-04-17 23:02:00 16.9 24 23.7
003A4D6E 2019-04-17 22:27:50 16.9 24 23.5
003A4D6E 2019-04-17 21:53:41 16.8 24 23.1
003A4D6E 2019-04-17 21:19:30 16.8 24 22.9
003A4D6E 2019-04-17 20:45:21 16.8 24 22.5
003A4D6E 2019-04-17 20:11:10 16.8 24 22.3
003A4D6E 2019-04-17 19:37:00 16.9 24 23
003A4D6E 2019-04-17 19:02:50 16.9 24 22.8
003A4D6E 2019-04-17 18:28:42 16.8 24 22.6
003A4D6E 2019-04-17 17:54:32 16.8 24 22.5
003A4D6E 2019-04-17 17:20:22 16.9 24 22.4
003A4D6E 2019-04-17 16:46:13 16.9 24 22
003A4D6E 2019-04-17 16:12:02 17.1 24 22
003A4D6E 2019-04-17 15:37:52 17 24 21.7
003A4D6E 2019-04-17 15:03:42 17.1 24 21.5
003A4D6E 2019-04-17 14:29:32 17.1 24 21
003A4D6E 2019-04-17 12:47:00 17.3 23 20.9
003A4D6E 2019-04-17 12:12:51 17.3 23 20.9
003A4D6E 2019-04-17 11:38:39 17.3 23 21
003A4D6E 2019-04-17 11:04:27 17.3 23 21
003A4D6E 2019-04-17 10:30:16 17.3 23 22.1
003A4D6E 2019-04-17 09:56:05 17.5 23 22.1
003A4D6E 2019-04-17 09:21:55 17.5 23 22.1
003A4D6E 2019-04-17 08:47:45 17.5 23 22
003A4D6E 2019-04-17 08:13:35 17.7 23 22.2
003A4D6E 2019-04-17 07:39:25 17.9 23 22.1
003A4D6E 2019-04-17 07:05:16 17.9 23 22.3
003A4D6E 2019-04-17 06:31:06 17.9 23 22.3
003A4D6E 2019-04-17 05:56:57 18 23 22.4
003A4D6E 2019-04-17 05:22:46 18.1 23 22.6
003A4D6E 2019-04-17 04:48:35 18.1 23 22.6
003A4D6E 2019-04-17 04:14:24 18.2 22 21.6
003A4D6E 2019-04-17 03:40:14 18.3 22 21.6
003A4D6E 2019-04-17 03:06:06 18.3 22 21.5
003A4D6E 2019-04-17 02:31:53 18.4 22 21.6
003A4D6E 2019-04-17 01:57:43 18.5 22 21.7
003A4D6E 2019-04-17 01:23:31 18.6 22 21.6
003A4D6E 2019-04-17 00:49:19 18.6 22 21.4
003A4D6E 2019-04-17 00:15:09 18.6 22 21.3
003A4D6E 2019-04-16 23:40:59 18.7 22 21.2
003A4D6E 2019-04-16 23:06:48 18.8 22 21.2
003A4D6E 2019-04-16 22:32:37 19 22 21
003A4D6E 2019-04-16 21:58:25 19.2 22 21
003A4D6E 2019-04-16 21:24:13 19.2 22 20.9
003A4D6E 2019-04-16 20:50:03 19.4 22 20.9
003A4D6E 2019-04-16 20:15:52 19.4 22 19.3
003A4D6E 2019-04-16 19:41:42 19.4 21 19.2
003A4D6E 2019-04-16 19:07:33 19.5 21 19.4
003A4D6E 2019-04-16 18:33:21 19.6 21 19.4
003A4D6E 2019-04-16 17:59:11 19.8 21 18.9
003A4D6E 2019-04-16 17:24:59 19.9 21 18.9
003A4D6E 2019-04-16 16:50:48 20.1 21 18.3
003A4D6E 2019-04-16 16:16:37 20.3 21 18
003A4D6E 2019-04-16 15:08:16 20.7 21 17.5
003A4D6E 2019-04-16 14:34:05 21.1 21 16.8
003A4D6E 2019-04-16 13:59:53 21.1 21 16.5
003A4D6E 2019-04-16 13:25:43 21.1 21 16.8
003A4D6E 2019-04-16 12:51:29 21.1 21 16.4
003A4D6E 2019-04-16 11:43:05 21 21 16.4
003A4D6E 2019-04-16 11:08:54 21 21 15.5
003A4D6E 2019-04-16 10:34:41 21 21 14.9
003A4D6E 2019-04-16 10:00:30 21 21 14.9
003A4D6E 2019-04-16 09:26:19 21 21 15
003A4D6E 2019-04-16 08:52:09 21 21 15
003A4D6E 2019-04-16 08:18:00 21 21 15
003A4D6E 2019-04-16 07:43:47 21 21 15.2
003A4D6E 2019-04-16 07:09:36 21 21 15.2
003A4D6E 2019-04-16 06:35:24 21 21 15.1
003A4D6E 2019-04-16 06:01:11 21.1 21 15.5
003A4D6E 2019-04-16 05:27:00 21.1 20 15.8
003A4D6E 2019-04-16 04:52:48 21.1 20 15.9
003A4D6E 2019-04-16 04:18:37 21.2 20 15.9
003A4D6E 2019-04-16 03:44:24 21.1 20 15.3
003A4D6E 2019-04-16 03:10:12 21.1 20 16
003A4D6E 2019-04-16 02:36:00 21.1 20 18.6
003A4D6E 2019-04-16 02:01:49 21.1 20 20.5
003A4D6E 2019-04-16 01:27:37 21.1 20 21.2
003A4D6E 2019-04-16 00:53:25 21.1 20 21.7
003A4D6E 2019-04-16 00:19:14 21.1 20 22.1
003A4D6E 2019-04-15 23:45:02 21.1 20 22.8
003A4D6E 2019-04-15 23:10:52 21.1 20 23
003A4D6E 2019-04-15 22:36:44 21.2 20 23.4
003A4D6E 2019-04-15 22:02:30 21.3 20 23.8
003A4D6E 2019-04-15 21:28:18 21.3 19 24.2
003A4D6E 2019-04-15 20:54:06 21.3 19 24.5
003A4D6E 2019-04-15 20:19:54 21.4 19 24.7
003A4D6E 2019-04-15 19:45:42 21.3 19 25.2
003A4D6E 2019-04-15 19:11:29 21.3 19 25.6
003A4D6E 2019-04-15 18:37:18 21.4 19 26
003A4D6E 2019-04-15 18:03:06 21.5 19 26.2
003A4D6E 2019-04-15 17:28:54 21.5 19 26.6
003A4D6E 2019-04-15 16:54:43 21.6 19 26.8
003A4D6E 2019-04-15 16:20:30 21.8 18 27.1
003A4D6E 2019-04-15 15:46:20 21.8 18 27.1
003A4D6E 2019-04-15 14:37:57 22.1 18 27.4
003A4D6E 2019-04-15 14:03:45 22.2 18 27.6
003A4D6E 2019-04-15 13:29:34 22.3 17 27.9
003A4D6E 2019-04-15 12:55:23 22.4 17 28
003A4D6E 2019-04-15 12:21:13 22.4 17 28.1
003A4D6E 2019-04-15 11:46:59 22.2 15 28.1
003A4D6E 2019-04-15 11:12:47 22.2 15 28
003A4D6E 2019-04-15 10:38:35 22.2 16 27.9
003A4D6E 2019-04-15 10:04:22 22.2 16 28.1
003A4D6E 2019-04-15 09:30:08 22.1 17 28.1
003A4D6E 2019-04-15 08:55:56 22 16 28
003A4D6E 2019-04-15 08:21:43 22 16 28.1
003A4D6E 2019-04-15 07:47:32 21.9 16 28.1
003A4D6E 2019-04-15 07:13:19 21.8 17 28.1
003A4D6E 2019-04-15 06:39:08 21.8 17 28.1
003A4D6E 2019-04-15 06:04:56 21.7 17 28.2
003A4D6E 2019-04-15 05:30:44 21.8 17 28.3
003A4D6E 2019-04-15 04:56:33 21.8 17 28.1
003A4D6E 2019-04-15 04:22:21 21.8 17 28.2
003A4D6E 2019-04-15 03:48:10 21.8 17 28.1
003A4D6E 2019-04-15 03:13:59 21.8 17 28.1
003A4D6E 2019-04-15 02:39:47 21.8 17 27.9
003A4D6E 2019-04-15 02:05:36 21.8 17 27.9
003A4D6E 2019-04-15 01:31:25 21.8 17 27.9
003A4D6E 2019-04-15 00:57:13 21.8 17 28
003A4D6E 2019-04-15 00:23:02 21.8 17 27.9
003A4D6E 2019-04-14 23:48:52 21.8 17 27.8
003A4D6E 2019-04-14 23:14:39 21.8 17 27.6
003A4D6E 2019-04-14 22:40:28 21.8 17 27.7
003A4D6E 2019-04-14 22:06:17 21.8 17 27.6
003A4D6E 2019-04-14 21:32:05 21.9 18 27.5
003A4D6E 2019-04-14 20:57:54 22 18 27.5
003A4D6E 2019-04-14 20:23:44 22 18 27.7
003A4D6E 2019-04-14 19:49:32 22 18 27.8
003A4D6E 2019-04-14 19:15:20 22 18 27.8
003A4D6E 2019-04-14 18:41:07 22 18 27.9
003A4D6E 2019-04-14 18:06:56 22 17 27.9
003A4D6E 2019-04-14 17:32:43 21.9 17 28
003A4D6E 2019-04-14 16:58:33 21.8 17 28.1
003A4D6E 2019-04-14 16:24:22 21.8 17 28
003A4D6E 2019-04-14 15:50:09 21.8 18 27.9
003A4D6E 2019-04-14 15:15:56 21.9 18 27.8
003A4D6E 2019-04-14 14:41:45 21.9 18 27.8
003A4D6E 2019-04-14 14:07:33 21.9 18 27.7
003A4D6E 2019-04-14 13:33:21 21.9 18 27.7
003A4D6E 2019-04-14 12:59:08 21.9 18 27.7
003A4D6E 2019-04-14 12:24:55 22 18 27.9
003A4D6E 2019-04-14 11:50:43 21.9 18 28.1
003A4D6E 2019-04-14 11:16:32 21.9 18 28
003A4D6E 2019-04-14 10:42:19 21.9 18 28
003A4D6E 2019-04-14 10:08:07 21.8 18 28
003A4D6E 2019-04-14 09:33:55 21.8 18 28.2
003A4D6E 2019-04-14 08:59:43 21.8 18 28.3
003A4D6E 2019-04-14 08:25:31 21.8 18 28.3
003A4D6E 2019-04-14 07:51:20 21.8 18 28.3
003A4D6E 2019-04-14 07:17:08 21.8 17 28.4
003A4D6E 2019-04-14 06:42:57 21.8 17 28.2
003A4D6E 2019-04-14 06:08:45 21.8 17 28
003A4D6E 2019-04-14 05:34:34 21.8 17 27.8
003A4D6E 2019-04-14 05:00:24 21.8 17 27.8
003A4D6E 2019-04-14 04:26:13 21.8 17 27.6
003A4D6E 2019-04-14 03:52:02 21.8 17 27.5
003A4D6E 2019-04-14 03:17:51 21.8 17 27.3
003A4D6E 2019-04-14 02:43:40 21.9 17 27.3
003A4D6E 2019-04-14 02:09:29 21.9 18 27.3
003A4D6E 2019-04-14 01:35:19 21.9 18 27.4
003A4D6E 2019-04-14 01:01:07 21.9 17 27.3
003A4D6E 2019-04-14 00:26:55 21.9 17 27.4
003A4D6E 2019-04-13 23:52:43 21.9 17 27.4
003A4D6E 2019-04-13 23:18:31 22 17 27.4
003A4D6E 2019-04-13 22:44:19 22 17 27.4
003A4D6E 2019-04-13 22:10:06 22 17 27.4
003A4D6E 2019-04-13 21:35:54 22 17 27.3
003A4D6E 2019-04-13 21:01:41 22 17 27.3
003A4D6E 2019-04-13 20:27:29 22 17 27.4
003A4D6E 2019-04-13 19:53:16 22 17 27.2
003A4D6E 2019-04-13 19:19:03 22.1 17 27
003A4D6E 2019-04-13 18:44:50 22.2 17 26.8
003A4D6E 2019-04-13 18:10:36 22.2 17 26.8
003A4D6E 2019-04-13 17:36:23 22.2 17 26.9
003A4D6E 2019-04-13 17:02:10 22.2 17 26.8
003A4D6E 2019-04-13 16:27:56 22.2 17 27
003A4D6E 2019-04-13 15:53:43 22.2 17 27.2
003A4D6E 2019-04-13 15:19:30 22.2 17 27.4
003A4D6E 2019-04-13 14:45:16 22.2 17 27.4
003A4D6E 2019-04-13 14:11:02 22.3 17 27.5
003A4D6E 2019-04-13 13:36:50 22.3 17 27.6
003A4D6E 2019-04-13 13:02:37 22.4 17 27.7
003A4D6E 2019-04-13 12:28:23 22.4 17 27.7
003A4D6E 2019-04-13 11:54:09 22.4 17 27.7
003A4D6E 2019-04-13 11:19:56 22.4 17 27.8
003A4D6E 2019-04-13 10:45:43 22.3 17 27.8
003A4D6E 2019-04-13 10:11:30 22.3 17 27.9
003A4D6E 2019-04-13 09:37:15 22.2 17 27.8
003A4D6E 2019-04-13 09:03:02 22.2 17 27.9
003A4D6E 2019-04-13 08:28:48 22.2 17 27.9
003A4D6E 2019-04-13 07:54:35 22.3 17 27.8
003A4D6E 2019-04-13 07:20:22 22.2 17 27.9
003A4D6E 2019-04-13 06:46:09 22.2 17 28
003A4D6E 2019-04-13 06:11:57 22.2 17 27.8
003A4D6E 2019-04-13 05:37:45 22.2 17 28
003A4D6E 2019-04-13 05:03:32 22.2 17 28.2
003A4D6E 2019-04-13 04:29:19 22.2 17 28.3
003A4D6E 2019-04-13 03:55:05 22.2 17 28.5
003A4D6E 2019-04-13 03:20:51 22.4 17 28.5
003A4D6E 2019-04-13 02:46:36 22.4 17 28.6
003A4D6E 2019-04-13 02:12:22 22.4 17 28.6
003A4D6E 2019-04-13 01:38:07 22.4 17 28.6
003A4D6E 2019-04-13 01:03:52 22.4 17 28.5
003A4D6E 2019-04-13 00:29:37 22.4 17 28.6
003A4D6E 2019-04-12 23:55:23 22.4 17 28.6
003A4D6E 2019-04-12 23:21:09 22.5 18 28.6
003A4D6E 2019-04-12 22:46:56 22.6 18 28.7
003A4D6E 2019-04-12 22:12:42 22.6 18 28.7
003A4D6E 2019-04-12 21:38:29 22.6 18 28.8
003A4D6E 2019-04-12 21:04:15 22.8 18 28.8
003A4D6E 2019-04-12 20:30:02 22.7 18 29
003A4D6E 2019-04-12 19:55:49 22.6 17 28.9
003A4D6E 2019-04-12 19:21:36 22.8 17 29.1
003A4D6E 2019-04-12 18:47:22 22.7 17 29
003A4D6E 2019-04-12 18:13:09 22.8 16 29.2
003A4D6E 2019-04-12 17:38:56 23 16 29.3
003A4D6E 2019-04-12 17:04:43 23 16 29.2
003A4D6E 2019-04-12 16:30:29 23 16 29.1
003A4D6E 2019-04-12 15:56:13 23 17 29.6
003A4D6E 2019-04-12 15:21:59 23 16 29.8
003A4D6E 2019-04-12 14:47:45 22.8 17 29.7
003A4D6E 2019-04-12 14:13:30 22.6 18 29.5
003A4D6E 2019-04-12 13:39:17 22.2 19 29
003A4D6E 2019-04-12 13:05:03 20.9 23 0